Baker City, OR

7:11 PM PST on February 07, 2016 (GMT -0800)
Baker City Municipal

Weather History for KBKE - September, 2012

Change the Weather History Date:

Tuesday, September 11, 2012

  Actual Average Record
Temperature  
Mean Temperature 49 °F 57 °F  
Max Temperature 67 °F 76 °F 95 °F (1953)
Min Temperature 31 °F 38 °F 27 °F (2005)
Degree Days  
Heating Degree Days 16 8  
Month to date heating degree days 75 72  
Since 1 July heating degree days 140 223  
Cooling Degree Days 0 0  
Month to date cooling degree days 2 7  
Year to date cooling degree days 184 167  
Moisture  
Dew Point 29 °F    
Average Humidity 54    
Maximum Humidity 92    
Minimum Humidity 16    
Precipitation  
Precipitation 0.00 in 0.02 in 0.62 in (2004)
Month to date precipitation 0.00 0.22  
Year to date precipitation 6.17 7.29  
Sea Level Pressure  
Sea Level Pressure 30.20 in    
Wind  
Wind Speed 7 mph (WNW)    
Max Wind Speed 20 mph    
Max Gust Speed 25 mph    
Visibility 10 miles    
Events      
T = Trace of Precipitation, MM = Missing Value Source: NWS Daily Summary

Daily Weather History Graph

Daily Weather History Graph

Search for Another Location

Airport or City:

Trip Planner

Search our weather history database for the weather conditions in past years. The results will help you decide how hot, cold, wet, or windy it might be!

Date:

Astronomy

Sep. 11, 2012 Rise Set
Actual Time 6:25 AM PDT 7:08 PM PDT
Civil Twilight 5:56 AM PDT 7:37 PM PDT
Nautical Twilight 5:21 AM PDT 8:12 PM PDT
Astronomical Twilight 4:44 AM PDT 8:49 PM PDT
Moon 1:38 AM PDT (9/11) 4:29 PM PDT (9/11)
Length of Visible Light 13h 41m
Length of Day
12h 42m
Waning Crescent, 20% of the Moon is Illuminated
Sep 11
Waning Crescent
Sep 15
New
Sep 22
First Quarter
Sep 29
Full
Oct 8
Last Quarter

Hourly Weather History & Observations

Time (PDT) Temp. Windchill Dew Point Humidity Pressure Visibility Wind Dir Wind Speed Gust Speed Precip Events Conditions
12:53 AM 42.1 °F 37.7 °F 30.9 °F 65% 30.12 in 10.0 mi West 6.9 mph - N/A   Clear
1:53 AM 39.9 °F 36.7 °F 30.9 °F 70% 30.13 in 10.0 mi South 4.6 mph - N/A   Clear
2:53 AM 39.9 °F 37.8 °F 30.9 °F 70% 30.13 in 10.0 mi WSW 3.5 mph - N/A   Clear
3:53 AM 39.9 °F 37.8 °F 32.0 °F 73% 30.14 in 10.0 mi West 3.5 mph - N/A   Clear
4:53 AM 30.9 °F - 28.0 °F 89% 30.18 in 10.0 mi Calm Calm - N/A   Clear
5:53 AM 32.0 °F - 28.0 °F 85% 30.20 in 10.0 mi Calm Calm - N/A   Clear
6:53 AM 35.1 °F 31.0 °F 30.9 °F 85% 30.23 in 10.0 mi West 4.6 mph - N/A   Clear
7:53 AM 43.0 °F 38.2 °F 34.0 °F 71% 30.23 in 10.0 mi NW 8.1 mph - N/A   Clear
8:17 AM 44.6 °F 40.7 °F 35.6 °F 71% 30.23 in 10.0 mi WNW 6.9 mph - N/A   Partly Cloudy
8:53 AM 48.9 °F - 35.1 °F 59% 30.23 in 10.0 mi NW 11.5 mph - N/A   Clear
9:53 AM 54.0 °F - 33.1 °F 45% 30.23 in 10.0 mi WNW 13.8 mph - N/A   Clear
10:53 AM 55.9 °F - 30.9 °F 39% 30.22 in 10.0 mi NW 16.1 mph 21.9 mph N/A   Clear
11:53 AM 59.0 °F - 30.0 °F 33% 30.22 in 10.0 mi NW 15.0 mph 19.6 mph N/A   Clear
12:53 PM 61.0 °F - 28.0 °F 29% 30.21 in 10.0 mi WNW 12.7 mph - N/A   Clear
1:53 PM 64.9 °F - 25.0 °F 22% 30.19 in 10.0 mi NW 11.5 mph - N/A   Clear
2:53 PM 66.0 °F - 24.1 °F 20% 30.18 in 10.0 mi NW 8.1 mph - N/A   Clear
3:53 PM 66.2 °F - 24.8 °F 21% 30.17 in 10.0 mi NW 9.2 mph - N/A   Clear
4:53 PM 66.0 °F - 19.9 °F 17% 30.17 in 10.0 mi NNW 9.2 mph - N/A   Clear
5:53 PM 64.0 °F - 23.0 °F 21% 30.18 in 10.0 mi NNW 9.2 mph - N/A   Clear
6:53 PM 55.9 °F - 28.0 °F 34% 30.19 in 10.0 mi NW 6.9 mph - N/A   Clear
7:53 PM 48.9 °F - 30.0 °F 48% 30.21 in 10.0 mi NW 5.8 mph - N/A   Clear
8:53 PM 45.0 °F 43.5 °F 28.9 °F 53% 30.23 in 10.0 mi South 3.5 mph - N/A   Clear
9:53 PM 46.0 °F 43.1 °F 28.0 °F 50% 30.23 in 10.0 mi WSW 5.8 mph - N/A   Clear
10:53 PM 39.9 °F 36.7 °F 28.0 °F 63% 30.25 in 10.0 mi South 4.6 mph - N/A   Clear
11:53 PM 37.9 °F 35.5 °F 30.0 °F 73% 30.25 in 10.0 mi West 3.5 mph - N/A   Clear